Regional Weather Roundup
Issued by NWS Kansas City/Pleasant Hill, MO

Home | Current Version | Previous Version | Text Only | Print | Product List | Glossary On
Versions: 1 2 3 4 5 6 7 8 9 10 11 12 13 14 15 16 17 18 19 20 21 22 23 24 25 26 27 28 29 30 31 32 33 34 35 36 37 38 39 40 41 42 43 44 45 46 47 48 49 50
247
ASUS43 KEAX 251610
RWREAX

WEATHER ROUNDUP FOR EASTERN KANSAS AND NORTHWEST MISSOURI
NATIONAL WEATHER SERVICE KANSAS CITY/PLEASANT HILL MO
1100 AM CDT MON JUL 25 2016

KSZ040-057-103>105-MOZ028-029-037-043-251700-
...KANSAS CITY METROPOLITAN AREA...

CITY           SKY/WX    TMP DP  RH WIND       PRES   REMARKS
K.C. INTL      CLOUDY    76  67  73 CALM      30.12R
K.C. DOWNTOWN  CLOUDY    78  68  71 CALM      30.10R
LEES SUMMIT    CLOUDY    75  70  84 NW5       30.12R
OLATHE - IXD   CLOUDY    75  70  84 W5        30.12S
OLATHE - OJC   CLOUDY    75  70  84 W5        30.12R
LAWRENCE       CLOUDY    75  69  81 NW3       30.12S

$$

MOZ001>008-011>017-020>025-030>033-038>040-044>046-053-054-251700-
...NORTHERN AND CENTRAL MISSOURI...

CITY           SKY/WX    TMP DP  RH WIND       PRES   REMARKS
ST. JOSEPH     CLOUDY    78  65  63 CALM      30.12R
MOSBY          CLOUDY    75  64  69 CALM      30.10R
WHITEMAN AFB   CLOUDY    75  75 100 SW5       30.08R
CLINTON        CLOUDY    75  73  94 SW7       30.10R
SEDALIA        CLOUDY    78  73  84 W3        30.10R
WARSAW         NOT AVBL
CHILLICOTHE      N/A     79  68  69 N5        30.10R
KIRKSVILLE     MOSUNNY   82  68  62 N8        30.08R

$$

MOZ041-047>049-056>058-063>065-088>090-097-251700-
...EASTERN AND SOUTHERN MISSOURI...

CITY           SKY/WX    TMP DP  RH WIND       PRES   REMARKS
ST. LOUIS INTL CLOUDY    81  71  71 NW5       30.05R
SPIRIT OF STL  CLOUDY    79  74  84 NW6       30.04S
COLUMBIA       CLOUDY    76  73  91 W9        30.08R
JEFFERSON CITY CLOUDY    75  72  90 NW5       30.06R
ROLLA          CLOUDY    76  71  85 NW7       30.06R
OSAGE BEACH    LGT RAIN  74  72  93 SW6       30.06S
SPRINGFIELD    LGT RAIN  73  70  90 W7        30.10R
BRANSON        CLOUDY    77  72  83 NW9       30.11S
JOPLIN         LGT RAIN  74  72  93 NE7       30.12F
WEST PLAINS    CLOUDY    78  71  79 N7        30.10R

$$

IAZ060-094-KSZ022-034>040-054-083-096-NEZ052-066-093-251700-
...KANSAS...SOUTHEAST NEBRASKA AND IOWA...

CITY           SKY/WX    TMP DP  RH WIND       PRES   REMARKS
TOPEKA         CLOUDY    74  69  85 N3        30.12R
MANHATTAN      LGT RAIN  72  68  87 NE9       30.09F
EMPORIA        CLOUDY    72  70  93 E5        30.09F
CHANUTE        LGT RAIN  73  71  93 NE8       30.05F
WICHITA        CLOUDY    76  68  76 E7        30.08R
OMAHA          MOSUNNY   80  65  59 S7        30.13S
LINCOLN        PTSUNNY   78  64  61 SE5       30.16S
FALLS CITY     CLOUDY    77  67  71 E8        30.12R
LAMONI         CLOUDY    77  68  73 NE5       30.12R
DES MOINES     PTSUNNY   84  61  45 NE6       30.09R

$$





USA.gov is the U.S. government's official web portal to all federal, state and local government web resources and services.